Regional Weather Roundup
Issued by NWS

Home | Current Version | Previous Version | Text Only | Print | Product List | Glossary Off
Versions: 1 2 3 4 5 6 7 8 9 10 11 12 13 14 15 16 17 18 19 20 21 22 23 24 25 26 27 28 29 30 31 32 33 34 35 36 37 38 39 40 41 42 43 44 45 46 47 48 49 50

000
ASUS43 KFSD 230002
RWRSD

WEATHER ROUNDUP FOR SOUTH DAKOTA
NATIONAL WEATHER SERVICE SIOUX FALLS SD
700 PM CDT SAT JUL 22 2017

NOTE: "FAIR" INDICATES FEW OR NO CLOUDS BELOW 12,000 FEET WITH NO
SIGNIFICANT WEATHER AND/OR OBSTRUCTIONS TO VISIBILITY.


SDZ001>005-009-010-012>017-230100-
NORTHWEST AND NORTH CENTRAL SOUTH DAKOTA

CITY           SKY/WX    TMP DP  RH WIND       PRES   REMARKS
BUFFALO          N/A     87  41  19 NW17      29.98F
FAITH            N/A     90  37  15 N20G28    30.00F
MOBRIDGE       SUNNY     88  51  28 NW16      29.91S
$$

SDZ012>016-024>037-041>051-057-063-072>074-230100-
SOUTHWEST AND SOUTH CENTRAL SOUTH DAKOTA

CITY           SKY/WX    TMP DP  RH WIND       PRES   REMARKS
RAPID CTY ARPT MOSUNNY   91  40  16 N12       30.04F
PIERRE         SUNNY     94  40  15 N8        29.91F
CUSTER         PTSUNNY   79  36  21 E15G22    30.21S
PHILIP         SUNNY     96  37  12 N10       29.94F
PINE RIDGE     MOSUNNY   88  53  30 SE9       30.04F
SPEARFISH      LGT RAIN  88  34  14 N6G13     30.10S
WINNER         FAIR      96  46  18 W6        29.93F
$$

SDZ004>011-016>023-039-040-230100-
NORTHEAST SOUTH DAKOTA

CITY           SKY/WX    TMP DP  RH WIND       PRES   REMARKS
ABERDEEN       SUNNY     88  50  27 NW17      29.87F
WATERTOWN      FAIR      83  58  42 W10       29.90F
BROOKINGS      FAIR      85  63  47 NW8       29.92F
SISSETON         N/A     86  57  37 NW8       29.85F
$$

SDZ017-020-022-023-036>040-048>070-230100-
SOUTHEAST SOUTH DAKOTA

CITY           SKY/WX    TMP DP  RH WIND       PRES   REMARKS
SIOUX FALLS    FAIR      86  69  56 NW5       29.90F
HURON          SUNNY     88  59  37 N5        29.89F
CHAMBERLAIN    MOSUNNY   94  56  28 CALM      29.91F
MITCHELL       MOSUNNY   89  64  43 N5        29.90F
YANKTON        FAIR      87  66  49 N6        29.92F
$$

ABBREVIATIONS USED IN REMARKS
   TC - TEMPERATURE IN CELSIUS
  WCI - WIND CHILL INDEX
   HX - HEAT INDEX
  VSB - VISIBILITY





USA.gov is the U.S. government's official web portal to all federal, state and local government web resources and services.